User: anonymous   Login
Location: Mount Kobau Star Party
(49.1167°N, 119.7333°W)
Time: 15:06:27
(UTC-08:00)
Language:

TSX-5 - Orbit

View from above orbital plane
View from above orbital plane
View from above satellite
View from above satellite

Ground track
Ground track

The orbit data is extracted from the following two-line orbital elements,

1 26374U 00030A   14352.55851120  .00022484  00000-0  19287-2 0  4834
2 26374 068.9360 084.1108 0688906 225.5651 230.9565 13.96138019728335
Epoch (UTC): 18 December 2014 13:24:15
Eccentricity: 0.0688906
inclination: 68.9360°
perigee height: 405 km
apogee height: 1409 km
right ascension of ascending node: 84.1108°
argument of perigee: 225.5651°
revolutions per day: 13.96138019
mean anomaly at epoch: 230.9565°
orbit number at epoch: 72833

The dashed part of the orbit path shows where the satellite is in the earth's shadow,  

DLR